Weather History for Fredericksburg, TX

Change the Weather History Date:

Tuesday, June 25, 2013

  Actual Average (KSAT) Record (KSAT)
Temperature  
Mean Temperature 84 °F 84 °F  
Max Temperature 94 °F 93 °F 103 °F (2009)
Min Temperature 73 °F 74 °F 59 °F (1974)
Degree Days  
Heating Degree Days 0 0  
Month to date heating degree days 0  
Since 1 June heating degree days 0  
Since 1 July heating degree days 1496  
Cooling Degree Days 18 18  
Month to date cooling degree days 429  
Year to date cooling degree days 1058  
Since 1 June cooling degree days 429  
Growing Degree Days 34 (Base 50)    
Moisture  
Dew Point 65 °F    
Average Humidity 58    
Maximum Humidity 82    
Minimum Humidity 32    
Precipitation  
Precipitation 0.00 in 0.14 in 3.27 in (1973)
Month to date precipitation 3.54  
Year to date precipitation 15.51  
Snow  
Snow 0.00 in - - ()
Month to date snowfall  
Since 1 June snowfall  
Since 1 July snowfall  
Snow Depth -    
Sea Level Pressure  
Sea Level Pressure 29.99 in    
Wind  
Wind Speed 12 mph (South)    
Max Wind Speed 21 mph    
Max Gust Speed 28 mph    
Visibility 10 miles    
Events      
T = Trace of Precipitation, MM = Missing Value Source: NWS Daily Summary

Daily Weather History Graph

Daily Weather History Graph

Search for Another Location

Airport:

Trip Planner

Search our weather history database for the weather conditions in past years. The results will help you decide how hot, cold, wet, or windy it might be!

Date:

Astronomy

Jun. 25, 2013 Rise Set
Actual Time 6:35 AM CDT 8:41 PM CDT
Civil Twilight 6:08 AM CDT 9:08 PM CDT
Nautical Twilight 5:34 AM CDT 9:42 PM CDT
Astronomical Twilight 4:58 AM CDT 10:18 PM CDT
Moon 10:41 PM CDT (6/25) 9:06 AM CDT (6/25)
Length of Visible Light 15h 00m
Length of Day
14h 05m
Waning Gibbous, 92% of the Moon is Illuminated
Jun 25
Waning Gibbous
Jun 29
Last Quarter
Jul 8
New
Jul 15
First Quarter
Jul 22
Full

Hourly Weather History & Observations

Time (CDT) Temp. Heat Index Dew Point Humidity Pressure Visibility Wind Dir Wind Speed Gust Speed Precip Events Conditions
12:15 AM 77.9 °F - 68.0 °F 71% 30.01 in 10.0 mi SSE 9.2 mph - N/A   Clear
12:35 AM 77.2 °F - 68.2 °F 74% 30.02 in 10.0 mi SSE 6.9 mph 17.3 mph N/A   Clear
12:55 AM 76.5 °F - 68.5 °F 76% 30.02 in 10.0 mi SSE 9.2 mph 16.1 mph N/A   Scattered Clouds
1:15 AM 76.1 °F - 68.9 °F 78% 30.03 in 10.0 mi South 8.1 mph 18.4 mph N/A   Mostly Cloudy
1:35 AM 76.3 °F - 68.9 °F 78% 30.03 in 10.0 mi SSE 10.4 mph - N/A   Overcast
1:55 AM 76.1 °F - 69.1 °F 79% 30.04 in 10.0 mi South 9.2 mph 16.1 mph N/A   Overcast
2:15 AM 76.1 °F - 68.9 °F 78% 30.04 in 10.0 mi South 9.2 mph 18.4 mph N/A   Overcast
2:35 AM 76.1 °F - 69.1 °F 79% 30.03 in 10.0 mi South 11.5 mph 19.6 mph N/A   Overcast
2:55 AM 76.1 °F - 68.9 °F 78% 30.02 in 10.0 mi SSE 11.5 mph 20.7 mph N/A   Overcast
3:15 AM 75.2 °F - 68.7 °F 80% 30.02 in 10.0 mi South 11.5 mph 17.3 mph N/A   Mostly Cloudy
3:35 AM 74.8 °F - 68.5 °F 81% 30.02 in 10.0 mi South 13.8 mph 19.6 mph N/A   Mostly Cloudy
3:55 AM 75.2 °F - 68.4 °F 79% 30.01 in 10.0 mi South 10.4 mph - N/A   Overcast
4:15 AM 75.2 °F - 68.2 °F 79% 30.02 in 10.0 mi South 10.4 mph 16.1 mph N/A   Overcast
4:35 AM 75.2 °F - 68.0 °F 78% 30.01 in 10.0 mi South 11.5 mph 16.1 mph N/A   Overcast
4:55 AM 75.0 °F - 68.0 °F 79% 30.00 in 10.0 mi South 13.8 mph 21.9 mph N/A   Mostly Cloudy
5:15 AM 75.0 °F - 68.0 °F 79% 30.01 in 10.0 mi South 10.4 mph 17.3 mph N/A   Mostly Cloudy
5:35 AM 75.0 °F - 68.0 °F 79% 30.02 in 10.0 mi South 10.4 mph - N/A   Overcast
5:55 AM 75.2 °F - 68.0 °F 78% 30.01 in 10.0 mi South 8.1 mph 17.3 mph N/A   Overcast
6:15 AM 74.7 °F - 67.6 °F 79% 30.01 in 10.0 mi South 9.2 mph 20.7 mph N/A   Mostly Cloudy
6:35 AM 74.5 °F - 67.8 °F 80% 30.02 in 10.0 mi South 8.1 mph - N/A   Mostly Cloudy
6:55 AM 74.1 °F - 67.8 °F 81% 30.02 in 10.0 mi South 9.2 mph - N/A   Mostly Cloudy
7:15 AM 73.9 °F - 68.0 °F 82% 30.01 in 10.0 mi South 9.2 mph - N/A   Scattered Clouds
7:35 AM 74.5 °F - 68.0 °F 80% 30.02 in 7.0 mi South 9.2 mph - N/A   Scattered Clouds
7:55 AM 74.8 °F - 67.6 °F 78% 30.02 in 5.0 mi South 11.5 mph - N/A   Haze
8:15 AM 75.2 °F - 67.6 °F 77% 30.03 in 7.0 mi South 11.5 mph - N/A   Mostly Cloudy
8:35 AM 76.3 °F - 67.5 °F 74% 30.04 in 7.0 mi South 15.0 mph 23.0 mph N/A   Mostly Cloudy
8:55 AM 76.1 °F - 66.9 °F 73% 30.04 in 10.0 mi SSW 15.0 mph 25.3 mph N/A   Mostly Cloudy
9:15 AM 77.4 °F - 66.4 °F 69% 30.04 in 10.0 mi SSW 17.3 mph 24.2 mph N/A   Mostly Cloudy
9:35 AM 77.9 °F - 66.2 °F 67% 30.04 in 10.0 mi South 17.3 mph 24.2 mph N/A   Scattered Clouds
9:55 AM 79.9 °F - 65.7 °F 62% 30.04 in 10.0 mi South 20.7 mph 27.6 mph N/A   Scattered Clouds
10:15 AM 79.9 °F - 64.9 °F 60% 30.04 in 10.0 mi SSW 18.4 mph 27.6 mph N/A   Mostly Cloudy
10:35 AM 81.3 °F 83.2 °F 65.3 °F 58% 30.04 in 10.0 mi SSW 20.7 mph 27.6 mph N/A   Scattered Clouds
10:55 AM 83.3 °F 85.1 °F 65.3 °F 54% 30.03 in 10.0 mi South 19.6 mph 25.3 mph N/A   Clear
11:15 AM 83.8 °F 85.3 °F 64.6 °F 52% 30.03 in 10.0 mi SSW 16.1 mph 25.3 mph N/A   Scattered Clouds
11:35 AM 84.4 °F 85.9 °F 64.6 °F 51% 30.03 in 10.0 mi SSW 16.1 mph 24.2 mph N/A   Clear
11:55 AM 85.5 °F 86.8 °F 64.2 °F 49% 30.03 in 10.0 mi SSW 19.6 mph 27.6 mph N/A   Clear
12:15 PM 86.2 °F 87.6 °F 64.2 °F 48% 30.02 in 10.0 mi South 13.8 mph 24.2 mph N/A   Clear
12:35 PM 87.1 °F 88.3 °F 63.9 °F 46% 30.01 in 10.0 mi South 18.4 mph 24.2 mph N/A   Clear
12:55 PM 88.3 °F 89.5 °F 63.7 °F 44% 30.00 in 10.0 mi South 17.3 mph 25.3 mph N/A   Clear
1:15 PM 88.9 °F 90.0 °F 63.5 °F 43% 30.00 in 10.0 mi SSW 12.7 mph 18.4 mph N/A   Clear
1:35 PM 90.1 °F 90.6 °F 61.9 °F 39% 29.99 in 10.0 mi South 17.3 mph 27.6 mph N/A   Clear
1:55 PM 90.7 °F 90.7 °F 60.8 °F 37% 29.99 in 10.0 mi South 17.3 mph 24.2 mph N/A   Clear
2:15 PM 92.3 °F 92.3 °F 60.8 °F 35% 29.98 in 10.0 mi SSW 16.1 mph 21.9 mph N/A   Clear
2:35 PM 93.0 °F 93.0 °F 60.8 °F 34% 29.97 in 10.0 mi South 13.8 mph - N/A   Clear
2:55 PM 93.7 °F 93.3 °F 59.5 °F 32% 29.97 in 10.0 mi South 15.0 mph 26.5 mph N/A   Clear
3:15 PM 92.7 °F 92.9 °F 61.3 °F 35% 29.96 in 10.0 mi South 16.1 mph 23.0 mph N/A   Clear
3:35 PM 93.6 °F 93.4 °F 60.8 °F 33% 29.96 in 10.0 mi South 16.1 mph 23.0 mph N/A   Clear
3:55 PM 94.3 °F 94.1 °F 60.3 °F 32% 29.95 in 10.0 mi SSW 15.0 mph 24.2 mph N/A   Clear
4:15 PM 94.3 °F 94.5 °F 60.8 °F 33% 29.94 in 10.0 mi South 12.7 mph 20.7 mph N/A   Clear
4:35 PM 93.2 °F 92.9 °F 59.9 °F 33% 29.94 in 10.0 mi South 13.8 mph 21.9 mph N/A   Clear
4:55 PM 93.6 °F 93.4 °F 60.4 °F 33% 29.94 in 10.0 mi South 19.6 mph 26.5 mph N/A   Clear
5:15 PM 94.5 °F 94.8 °F 61.3 °F 33% 29.93 in 10.0 mi South 15.0 mph 20.7 mph N/A   Clear
5:35 PM 93.4 °F 93.5 °F 61.3 °F 34% 29.93 in 10.0 mi SSE 12.7 mph 21.9 mph N/A   Clear
5:55 PM 92.7 °F 92.9 °F 61.3 °F 35% 29.92 in 10.0 mi SSE 15.0 mph 26.5 mph N/A   Clear
6:15 PM 92.8 °F 93.1 °F 61.5 °F 35% 29.92 in 10.0 mi SSE 16.1 mph 23.0 mph N/A   Clear
6:35 PM 92.5 °F 92.2 °F 60.4 °F 34% 29.92 in 10.0 mi South 16.1 mph 23.0 mph N/A   Clear
6:55 PM 91.8 °F 91.2 °F 60.1 °F 34% 29.91 in 10.0 mi South 13.8 mph 20.7 mph N/A   Clear
7:15 PM 91.4 °F 91.0 °F 60.1 °F 35% 29.92 in 10.0 mi SSE 9.2 mph 18.4 mph N/A   Clear
7:35 PM 90.7 °F 90.1 °F 59.2 °F 35% 29.92 in 10.0 mi South 15.0 mph 18.4 mph N/A   Clear
7:55 PM 89.8 °F 88.9 °F 59.0 °F 35% 29.92 in 10.0 mi South 10.4 mph 18.4 mph N/A   Clear
8:15 PM 89.1 °F 88.2 °F 59.2 °F 36% 29.93 in 10.0 mi South 9.2 mph 16.1 mph N/A   Clear
8:35 PM 88.2 °F 87.3 °F 59.0 °F 37% 29.92 in 10.0 mi SSE 6.9 mph - N/A   Clear
8:55 PM 87.3 °F 86.7 °F 59.4 °F 39% 29.92 in 10.0 mi SSE 6.9 mph - N/A   Clear
9:15 PM 86.0 °F 87.1 °F 63.9 °F 47% 29.93 in 10.0 mi SSE 6.9 mph - N/A   Clear
9:35 PM 84.9 °F 87.4 °F 66.7 °F 54% 29.94 in 10.0 mi SSE 10.4 mph 19.6 mph N/A   Clear
9:55 PM 83.5 °F 86.7 °F 68.2 °F 60% 29.94 in 10.0 mi SSE 10.4 mph 20.7 mph N/A   Clear
10:15 PM 82.6 °F 85.7 °F 68.4 °F 62% 29.95 in 10.0 mi SSE 11.5 mph - N/A   Clear
10:35 PM 81.9 °F 84.8 °F 68.4 °F 63% 29.96 in 10.0 mi South 9.2 mph - N/A   Clear
10:55 PM 81.1 °F 84.0 °F 68.4 °F 65% 29.97 in 10.0 mi South 10.4 mph 16.1 mph N/A   Clear
11:15 PM 80.6 °F 83.4 °F 68.4 °F 66% 29.98 in 10.0 mi SSE 8.1 mph 18.4 mph N/A   Clear
11:35 PM 79.9 °F - 68.0 °F 67% 29.99 in 10.0 mi South 11.5 mph 16.1 mph N/A   Clear
11:55 PM 79.0 °F - 67.8 °F 69% 29.99 in 10.0 mi SSE 6.9 mph - N/A   Clear